SCP
0 0 0 0 0 0 1 1 1 1 1 1 1 1 1 0 0 0 0 0 0 0 0 0 0 0 0 0 0 0 0 0 0 0 0 0 0 0 0 0 0 0 0
0 0 0 0 0 1 1 1 1 1 1 1 1 1 1 1 0 0 0 0 0 0 0 0 0 0 0 0 0 0 0 0 0 0 0 0 0 0 0 0 0 0 0
0 0 0 0 0 1 1 1 1 1 1 1 1 1 1 1 1 0 0 0 0 0 0 0 0 0 0 0 0 0 0 0 0 0 0 0 0 0 0 0 0 0 0
0 0 0 0 0 1 1 1 1 1 1 1 1 1 1 1 1 0 0 0 0 0 0 0 0 0 0 0 0 0 0 0 0 0 0 0 0 0 0 0 0 0 0
0 0 0 0 0 0 0 1 1 1 1 1 1 1 1 1 1 0 0 0 0 0 0 0 0 0 0 0 0 0 0 0 0 0 0 0 0 0 0 0 0 0 0
0 0 0 0 0 0 0 0 0 0 0 0 1 1 1 1 1 0 0 0 0 0 0 0 0 0 0 0 0 0 0 0 0 0 0 0 0 0 0 0 0 0 0
0 0 0 0 0 0 0 0 0 0 0 0 0 1 1 1 0 0 0 0 0 0 0 0 0 0 0 0 0 0 0 0 0 0 0 0 0 0 0 0 0 0 0
0 0 0 0 0 0 0 0 0 0 0 0 0 1 1 0 0 0 0 0 0 0 0 0 0 0 0 0 0 0 0 0 0 0 0 0 0 0 0 0 0 0 0
0 0 0 0 0 0 0 0 0 0 0 0 0 0 0 0 0 0 0 0 0 0 0 0 0 0 0 0 0 0 0 0 0 0 0 0 0 0 0 0 0 0 0
0 0 0 0 0 0 0 0 0 0 0 0 0 0 0 0 0 0 0 0 0 0 0 0 0 0 0 0 0 0 0 0 0 0 0 0 0 0 0 0 0 0 0
0 0 0 0 0 0 0 0 0 0 0 0 0 0 0 0 0 0 0 0 0 0 0 0 0 0 0 0 0 0 0 0 0 0 0 0 0 0 0 0 0 0 0
0 0 0 0 0 0 0 0 0 0 0 0 0 0 0 0 0 0 0 0 0 0 0 0 0 0 0 0 0 0 0 0 0 0 0 0 0 0 0 0 0 0 0
0 0 0 0 0 0 0 0 0 0 0 0 0 0 0 0 0 0 0 0 0 0 0 0 0 0 0 0 0 0 0 0 0 0 0 0 0 0 0 0 0 0 0
0 0 0 0 0 0 0 0 0 0 0 0 0 0 0 0 0 0 0 0 0 0 0 0 0 0 0 0 0 0 0 0 0 0 0 0 0 0 0 0 0 0 0
0 0 0 0 0 0 0 0 0 0 0 0 0 0 0 0 0 0 0 0 0 0 0 0 0 0 0 0 0 0 0 0 0 0 0 0 0 0 0 0 0 0 0
0 0 0 0 0 0 0 0 0 0 0 0 0 0 0 0 0 0 0 0 0 0 0 0 0 0 0 0 0 0 0 0 0 0 0 0 0 0 0 0 0 0 0
0 0 0 0 0 0 0 0 0 0 0 0 0 0 0 0 0 0 0 0 0 0 0 0 0 0 0 0 0 0 0 0 0 0 0 0 0 0 0 0 0 0 0
0 0 0 0 0 0 0 0 0 0 0 0 0 0 0 0 0 0 0 0 0 0 0 0 0 0 0 0 0 0 0 0 0 0 0 0 0 0 0 0 0 0 0
0 0 0 0 0 0 0 0 0 0 0 0 0 0 0 0 0 0 0 0 0 0 0 0 0 0 0 0 0 0 0 0 0 0 0 0 0 0 0 0 0 0 0
0 0 0 0 0 0 0 0 0 0 0 0 0 0 0 0 0 0 0 0 0 0 0 0 0 0 0 0 0 0 0 0 0 0 0 0 0 0 0 0 0 0 0
0 0 0 0 0 0 0 0 0 0 0 0 0 0 0 0 0 0 0 0 0 0 0 0 0 0 0 0 0 0 0 0 0 0 0 0 0 0 0 0 0 0 0
0 0 0 0 0 0 0 0 0 0 0 0 0 0 0 0 0 0 0 0 0 0 0 0 0 0 0 0 0 0 0 0 0 0 0 0 0 0 0 0 0 0 0
0 0 0 0 0 0 0 0 0 0 0 0 0 0 0 0 0 0 0 0 0 0 0 0 0 0 0 0 0 0 0 0 0 0 0 0 0 0 0 0 0 0 0
0 0 0 0 0 0 0 0 0 0 0 0 0 0 0 0 0 0 0 0 0 0 0 0 0 0 0 0 0 0 0 0 0 0 0 0 0 0 0 0 0 0 0
0 0 0 0 0 0 0 0 0 0 0 0 0 0 0 0 0 0 0 0 0 0 0 0 0 0 0 0 0 0 0 0 0 0 0 0 0 0 0 0 0 0 0
0 0 0 0 0 0 0 0 0 0 0 0 0 0 0 0 0 0 0 0 0 0 0 0 0 0 0 0 0 0 0 0 0 0 0 0 0 0 0 0 0 0 0
Wind_Speed
0 1 1 1 2 2 2 2 3 3 3 4 4 4 5 5 5 5 5 5 6 6 5 6 7 6 5 4 4 5 5 6 10 7 4 4 6 6 5 5 5 5 6
0 1 1 2 2 2 2 3 3 3 4 4 4 4 5 5 5 6 6 6 6 6 6 6 7 6 6 5 5 6 6 6 7 10 6 4 5 6 5 5 4 4 4
1 1 1 2 2 2 3 3 3 3 4 4 4 4 5 5 5 5 6 6 6 6 6 7 7 7 7 6 6 7 6 6 6 7 8 5 4 3 4 4 4 4 4
1 1 2 2 3 3 3 3 3 4 4 4 5 5 5 5 5 5 5 6 6 7 7 7 7 8 8 8 7 7 6 6 6 6 7 5 4 3 3 3 4 3 4
1 2 2 3 3 3 3 4 4 4 5 5 5 5 5 5 5 5 5 6 6 6 6 6 7 9 11 9 8 6 6 5 5 6 6 5 4 3 3 3 5 3 4
1 2 3 3 3 3 4 4 4 5 5 5 5 5 6 5 9 10 8 6 6 6 7 7 7 9 10 12 13 11 9 7 7 6 6 6 6 5 4 4 3 3 3
1 2 3 3 4 4 5 5 5 5 5 6 6 5 6 7 11 11 11 7 6 6 6 7 7 7 9 8 10 11 10 11 11 8 8 8 7 5 4 4 4 4 5
2 3 3 3 4 5 4 5 5 5 5 6 6 6 6 8 11 11 10 6 6 6 6 7 7 7 7 8 7 7 7 7 8 7 7 7 6 5 5 6 5 3 2
2 3 3 3 4 4 5 5 5 5 5 5 5 5 6 7 10 10 9 5 5 6 7 7 7 7 11 11 8 8 7 6 7 9 9 8 8 8 5 2 2 2 3
3 3 3 3 3 4 5 5 5 5 5 5 5 5 5 6 9 10 9 4 5 5 6 6 9 10 11 11 7 7 8 7 5 6 6 6 5 5 5 4 4 3 2
3 3 3 3 4 4 5 4 5 5 5 5 5 5 5 6 8 9 9 4 5 5 5 5 6 11 12 12 10 7 8 7 5 4 4 3 3 2 2 2 2 3 3
2 3 3 4 4 4 4 5 4 4 5 5 4 5 4 4 6 8 10 9 9 6 6 5 6 10 11 11 8 8 9 7 3 3 3 3 2 2 1 1 1 1 1
2 3 3 4 3 3 4 4 4 4 4 4 4 5 5 4 5 9 10 10 10 6 5 8 10 10 9 7 8 9 7 3 2 2 3 3 2 2 1 0 1 1 2
2 3 3 3 4 4 3 3 3 4 4 4 5 5 5 5 4 4 4 5 6 6 5 6 8 8 7 7 6 5 3 3 3 2 2 2 1 1 1 1 0 1 2
2 3 3 3 3 4 4 3 4 3 4 5 4 4 5 6 7 11 7 4 4 4 4 3 3 3 3 3 3 3 3 2 2 2 1 1 1 0 0 0 0 0 1
2 3 2 3 3 3 4 5 6 7 10 11 10 8 7 9 12 12 10 9 9 7 4 3 3 3 3 3 3 3 2 2 2 2 2 1 1 0 0 1 1 1 1
2 3 2 3 3 3 4 4 5 7 9 10 10 11 10 11 11 10 9 8 8 7 3 2 3 3 3 3 2 2 3 3 2 2 2 1 1 0 0 1 1 1 1
3 3 3 2 3 3 3 4 4 5 6 6 7 10 11 11 11 10 9 7 5 4 2 2 3 3 3 3 2 2 2 2 2 2 2 2 1 0 0 0 1 1 1
3 2 2 2 2 3 3 3 4 4 5 5 5 7 10 10 10 10 8 4 3 4 3 3 3 3 3 3 2 2 2 2 2 2 2 2 1 0 0 0 1 2 1
2 5 3 2 2 2 3 3 3 4 4 4 5 5 6 6 4 5 5 4 4 4 4 4 3 3 3 2 2 2 2 2 2 2 2 1 1 0 0 1 1 1 1
2 3 5 3 2 2 3 3 3 3 4 4 4 6 9 5 4 5 4 4 4 4 4 4 3 3 3 2 2 2 2 2 2 1 1 1 1 0 0 1 1 2 2
2 2 2 2 2 2 3 2 3 3 4 5 5 6 9 5 4 4 4 4 4 4 3 3 3 3 2 2 2 2 2 2 2 1 1 1 1 0 1 1 2 2 3
2 2 2 2 2 4 3 3 3 3 4 4 4 5 4 4 4 4 4 4 4 4 3 3 3 3 3 3 2 2 2 2 2 2 1 1 1 1 1 2 3 3 2
2 2 2 2 2 2 2 3 3 3 4 4 4 4 4 4 4 5 5 5 4 4 4 3 3 3 4 4 3 2 2 2 2 1 2 2 1 1 2 2 2 3 3
1 2 2 2 2 2 3 3 3 3 4 4 4 4 4 4 4 5 5 4 5 4 5 4 3 3 4 4 4 3 4 4 3 1 0 1 2 2 2 2 3 3 3
1 2 2 2 2 2 2 3 3 3 3 4 4 4 4 4 4 4 4 4 4 4 4 4 4 5 5 4 4 4 5 4 3 2 1 1 2 2 2 3 3 3 3
Wind_Direction
322 334 345 320 307 303 296 291 285 286 281 268 262 261 258 254 250 244 247 247 250 257 262 265 268 263 260 259 260 258 255 254 268 277 264 269 262 262 266 255 252 249 250
326 3 341 324 324 322 311 303 301 297 293 286 277 270 266 263 255 247 252 254 250 256 261 264 271 272 263 261 257 257 258 253 259 276 279 270 265 263 261 259 267 266 259
24 16 346 332 325 311 303 301 302 298 296 295 289 280 276 272 265 255 251 253 250 250 255 260 268 273 266 264 261 260 261 262 256 268 276 268 270 278 275 272 270 266 271
30 6 335 317 306 302 300 300 299 297 296 295 291 288 281 275 267 264 262 259 257 255 254 254 258 265 266 264 263 261 263 263 261 264 271 274 273 277 267 266 275 267 270
13 337 314 312 311 305 306 304 303 301 299 296 298 296 291 282 272 274 266 264 263 266 265 260 261 270 274 271 271 268 263 263 265 264 267 271 267 272 263 260 267 272 271
339 307 313 322 321 312 307 306 305 302 298 297 294 291 289 289 296 293 286 269 268 269 274 275 272 269 278 279 280 279 271 266 267 263 260 264 263 260 258 257 261 275 275
321 314 319 320 323 317 313 313 306 303 299 295 289 285 283 286 296 296 293 282 270 267 270 276 282 281 285 275 276 278 270 268 264 260 260 259 261 258 254 253 252 257 261
315 312 314 318 316 317 315 309 304 298 293 288 286 282 282 291 298 298 299 287 271 268 268 268 272 276 275 284 278 272 268 266 264 260 254 256 259 256 244 247 250 267 294
305 301 307 314 315 318 316 311 306 300 295 290 284 281 281 289 298 299 301 283 279 277 276 275 275 272 281 290 283 275 276 276 278 275 276 276 277 275 265 246 237 248 278
293 301 311 314 315 313 309 307 305 299 294 297 296 285 280 285 295 299 300 282 284 284 281 277 280 284 287 290 279 272 273 279 282 285 285 285 275 267 263 236 219 228 256
303 316 318 317 311 305 308 311 313 312 309 307 301 294 282 285 293 297 299 291 283 285 285 284 281 290 292 293 293 280 279 287 275 270 274 272 265 254 257 263 246 225 228
315 317 316 314 315 324 321 317 317 319 319 313 306 304 296 293 301 299 299 297 295 283 281 282 283 294 298 301 300 298 301 300 273 262 267 267 268 270 271 271 271 296 275
326 319 315 318 319 319 316 317 320 324 321 318 314 311 311 307 301 307 307 304 302 295 287 296 300 302 305 304 302 307 308 294 281 271 264 267 267 256 244 232 56 55 35
312 311 314 317 319 321 318 317 318 320 318 316 315 312 311 311 309 303 295 300 304 302 301 305 313 315 309 307 311 314 308 297 289 279 279 275 263 234 218 218 208 91 53
306 309 313 315 314 313 314 310 311 298 303 308 303 300 307 309 312 317 316 309 301 297 310 310 309 313 314 316 319 317 319 327 326 314 296 299 289 271 300 29 94 72 100
308 310 308 310 312 313 314 318 318 317 319 319 317 313 309 312 319 323 324 322 320 319 323 316 313 312 308 308 312 320 329 327 324 319 310 298 273 243 18 54 80 100 105
293 298 301 307 309 311 315 318 319 324 327 327 329 329 328 328 332 335 335 334 332 331 327 313 309 308 308 311 313 318 322 322 322 323 322 318 313 320 113 109 114 106 104
294 295 302 293 296 301 305 307 308 314 320 324 330 336 338 339 341 341 342 345 342 343 329 312 309 309 313 318 319 323 325 326 331 333 334 329 323 7 60 109 144 137 126
296 295 290 288 293 298 302 306 306 309 312 318 325 330 336 337 341 346 347 347 330 327 324 316 312 313 316 319 321 323 323 321 325 329 325 319 317 21 105 127 145 136 114
297 303 310 303 300 308 311 310 312 313 316 319 322 325 327 334 341 342 345 338 329 322 320 317 316 318 319 322 322 321 323 320 320 320 316 315 314 321 137 145 151 140 123
301 303 314 318 312 310 307 306 307 309 311 314 316 322 330 332 331 332 332 331 324 320 317 316 317 320 320 319 315 315 315 310 308 307 307 313 322 331 135 143 143 132 123
304 305 307 307 309 307 306 305 307 309 313 315 319 325 333 337 331 327 325 323 320 316 313 312 314 315 311 307 304 302 301 300 298 297 294 294 300 247 153 137 128 128 130
308 309 310 310 306 309 319 319 316 315 315 316 318 321 327 330 329 327 325 323 322 322 322 320 316 316 316 313 304 291 283 284 283 267 242 233 220 187 156 146 146 142 140
303 300 300 305 312 312 312 313 314 313 315 316 318 320 322 325 326 326 324 324 326 326 326 324 321 319 318 319 317 311 297 294 291 267 216 189 182 168 155 145 145 149 147
309 306 304 305 307 309 310 311 313 315 315 317 320 323 324 325 325 325 326 325 326 328 331 330 330 332 333 328 322 318 316 324 329 337 159 156 162 164 154 142 137 133 129
314 310 312 311 306 305 305 307 310 313 314 315 318 321 321 321 323 325 327 330 332 334 334 335 337 334 330 332 332 335 343 350 357 5 50 143 148 146 141 133 133 131 130